Regional Weather Roundup
Issued by NWS

Home | Current Version | Previous Version | Text Only | Print | Product List | Glossary On
Versions: 1 2 3 4 5 6 7 8 9 10 11 12 13 14 15 16 17 18 19 20 21 22 23 24 25 26 27 28 29 30 31 32 33 34 35 36 37 38 39 40 41 42 43 44 45 46 47 48 49 50
000
ASUS43 KLMK 171502
RWRKY
KENTUCKY REGIONAL WEATHER ROUNDUP
NATIONAL WEATHER SERVICE LOUISVILLE KY
1100 AM EDT THU APR 17 2014

NOTE "FAIR" INDICATES FEW OR NO CLOUDS BELOW 12,000 FEET
WITH NO SIGNIFICANT WEATHER AND/OR OBSTRUCTIONS TO VISIBILITY.

KYZ001>023-026-027-061>063-070>075-171600-
WESTERN AND SOUTH CENTRAL KENTUCKY

CITY           SKY/WX    TMP DP  RH WIND       PRES   REMARKS
PADUCAH        SUNNY     60  38  43 SW15      30.31R
HENDERSON      SUNNY     57  37  47 S13       30.33R
OWENSBORO      SUNNY     58  38  47 S16G23    30.34R
HOPKINSVILLE   SUNNY     59  36  41 S9        30.34S
BOWLING GREEN  SUNNY     57  31  37 S13       30.38R
GLASGOW        NOT AVBL
$$

KYZ024-025-028>034-038-045-046-053-171600-
NORTH CENTRAL KENTUCKY

CITY           SKY/WX    TMP DP  RH WIND       PRES   REMARKS
LOUISVILLE/SDF MOSUNNY   60  32  34 SW14      30.36R
LOUISVILLE/LOU SUNNY     60  32  34 S12G18    30.36S
FORT KNOX      SUNNY     58  33  38 S17       30.35R
$$

KYZ035>037-039>044-047>052-055>060-089>105-171600-
NORTHEAST KENTUCKY

CITY           SKY/WX    TMP DP  RH WIND       PRES   REMARKS
LEXINGTON      SUNNY     57  31  37 S15       30.38R
COVINGTON      MOSUNNY   56  31  38 SW14G23   30.35S
FRANKFORT      SUNNY     57  31  37 SW15G24   30.37R
$$

KYZ054-064>069-076>088-106>120-171600-
SOUTHEAST KENTUCKY

CITY           SKY/WX    TMP DP  RH WIND       PRES   REMARKS
JACKSON        SUNNY     55  24  30 CALM      30.42R
LONDON         SUNNY     55  27  34 SE6       30.41R
SOMERSET       NOT AVBL
MIDDLESBORO    NOT AVBL
MONTICELLO     SUNNY     58  32  37 SE9       30.41R
$$




USA.gov is the U.S. government's official web portal to all federal, state and local government web resources and services.